| time (UTC) | temp C | wind direction | speed KPH | gust KPH | rain 1hr cm | rain 24hr cm | rain mn cm | humidity % | barometer mb |
| 20260506232611 | 16 | 0 | 6.4 | 11.3 | 0.00 | 0.00 | 0.00 | 71 | 1016.0 |
| 20260506231108 | 16 | 45 | 6.4 | 12.9 | 0.00 | 0.00 | 0.00 | 74 | 1015.8 |
| 20260506225607 | 16 | 45 | 4.8 | 8.0 | 0.00 | 0.00 | 0.00 | 76 | 1015.8 |
| 20260506224104 | 16 | 45 | 4.8 | 9.7 | 0.00 | 0.00 | 0.00 | 77 | 1015.8 |
| 20260506222603 | 16 | 0 | 4.8 | 6.4 | 0.00 | 0.00 | 0.00 | 77 | 1016.1 |
| 20260506221100 | 16 | 0 | 0.0 | 3.2 | 0.00 | 0.00 | 0.00 | 77 | 1016.1 |
| 20260506215557 | 16 | 270 | 0.0 | 3.2 | 0.00 | 0.00 | 0.00 | 78 | 1016.2 |
| 20260506214056 | 16 | 315 | 0.0 | 3.2 | 0.00 | 0.00 | 0.00 | 78 | 1016.3 |
| 20260506212554 | 16 | 315 | 3.2 | 4.8 | 0.00 | 0.00 | 0.00 | 77 | 1016.4 |
| 20260506211051 | 17 | 225 | 0.0 | 0.0 | 0.00 | 0.00 | 0.00 | 77 | 1016.5 |
| 20260506205549 | 17 | 225 | 0.0 | 0.0 | 0.00 | 0.00 | 0.00 | 78 | 1016.5 |
| 20260506204046 | 17 | 225 | 0.0 | 0.0 | 0.00 | 0.00 | 0.00 | 78 | 1016.7 |
| 20260506202544 | 17 | 225 | 0.0 | 0.0 | 0.00 | 0.00 | 0.00 | 78 | 1016.8 |
| 20260506201043 | 17 | 225 | 0.0 | 0.0 | 0.00 | 0.00 | 0.00 | 74 | 1016.6 |
| 20260506195540 | 17 | 225 | 0.0 | 1.6 | 0.00 | 0.00 | 0.00 | 73 | 1016.6 |
| 20260506194039 | 17 | 315 | 0.0 | 4.8 | 0.00 | 0.00 | 0.00 | 73 | 1016.6 |
| 20260506192536 | 18 | 0 | 1.6 | 3.2 | 0.00 | 0.00 | 0.00 | 73 | 1016.5 |
| 20260506191034 | 18 | 45 | 3.2 | 3.2 | 0.00 | 0.00 | 0.00 | 73 | 1016.3 |
| 20260506185533 | 18 | 135 | 0.0 | 0.0 | 0.00 | 0.00 | 0.00 | 73 | 1016.2 |
| 20260506184030 | 18 | 270 | 0.0 | 3.2 | 0.00 | 0.00 | 0.00 | 72 | 1016.0 |
| 20260506182528 | 18 | 270 | 0.0 | 3.2 | 0.00 | 0.00 | 0.00 | 72 | 1015.9 |
| 20260506181026 | 19 | 225 | 0.0 | 1.6 | 0.00 | 0.00 | 0.00 | 72 | 1015.8 |
| 20260506175524 | 19 | 225 | 0.0 | 3.2 | 0.00 | 0.00 | 0.00 | 72 | 1015.6 |
| 20260506174030 | 19 | 270 | 0.0 | 3.2 | 0.00 | 0.00 | 0.00 | 71 | 1015.5 |
| 20260506172520 | 19 | 225 | 0.0 | 3.2 | 0.00 | 0.00 | 0.00 | 71 | 1015.6 |
| 20260506171017 | 19 | 180 | 0.0 | 3.2 | 0.00 | 0.00 | 0.00 | 71 | 1015.5 |
| 20260506165515 | 20 | 270 | 1.6 | 3.2 | 0.00 | 0.00 | 0.00 | 70 | 1015.6 |
| 20260506164012 | 20 | 180 | 3.2 | 4.8 | 0.00 | 0.00 | 0.00 | 68 | 1015.5 |
| 20260506162510 | 20 | 135 | 1.6 | 4.8 | 0.00 | 0.00 | 0.00 | 67 | 1015.4 |
| 20260506161008 | 20 | 225 | 3.2 | 6.4 | 0.00 | 0.00 | 0.00 | 66 | 1015.4 |
| 20260506155505 | 21 | 45 | 1.6 | 8.0 | 0.00 | 0.00 | 0.00 | 65 | 1015.3 |
| 20260506154004 | 21 | 315 | 6.4 | 8.0 | 0.00 | 0.00 | 0.00 | 62 | 1015.4 |
| 20260506152502 | 21 | 135 | 6.4 | 11.3 | 0.00 | 0.00 | 0.00 | 61 | 1015.3 |
| 20260506150959 | 21 | 180 | 6.4 | 9.7 | 0.00 | 0.00 | 0.00 | 61 | 1015.2 |
| 20260506145457 | 22 | 0 | 3.2 | 11.3 | 0.00 | 0.00 | 0.00 | 61 | 1015.3 |
| 20260506143956 | 22 | 180 | 6.4 | 11.3 | 0.00 | 0.00 | 0.00 | 62 | 1015.5 |
| 20260506142454 | 22 | 180 | 6.4 | 12.9 | 0.00 | 0.00 | 0.00 | 60 | 1015.7 |
| 20260506140951 | 22 | 135 | 9.7 | 14.5 | 0.00 | 0.00 | 0.00 | 58 | 1015.7 |
| 20260506135449 | 23 | 180 | 6.4 | 12.9 | 0.00 | 0.00 | 0.00 | 60 | 1015.7 |
| 20260506133947 | 23 | 135 | 8.0 | 16.1 | 0.00 | 0.00 | 0.00 | 59 | 1015.8 |
| 20260506132444 | 23 | 180 | 9.7 | 17.7 | 0.00 | 0.00 | 0.00 | 58 | 1015.9 |
| 20260506130943 | 24 | 135 | 12.9 | 14.5 | 0.00 | 0.00 | 0.00 | 56 | 1015.9 |
| 20260506125440 | 25 | 180 | 9.7 | 16.1 | 0.00 | 0.00 | 0.00 | 57 | 1015.8 |
| 20260506123938 | 25 | 180 | 8.0 | 14.5 | 0.00 | 0.00 | 0.00 | 58 | 1015.9 |
| 20260506122436 | 25 | 180 | 9.7 | 17.7 | 0.00 | 0.00 | 0.00 | 59 | 1016.1 |
| 20260506120933 | 25 | 135 | 12.9 | 16.1 | 0.00 | 0.00 | 0.00 | 61 | 1016.2 |
| 20260506115431 | 25 | 135 | 12.9 | 17.7 | 0.00 | 0.00 | 0.00 | 60 | 1016.6 |
| 20260506113934 | 25 | 180 | 9.7 | 17.7 | 0.00 | 0.00 | 0.00 | 60 | 1016.5 |
| 20260506112427 | 25 | 135 | 8.0 | 17.7 | 0.00 | 0.00 | 0.00 | 60 | 1016.6 |
| 20260506110925 | 24 | 180 | 12.9 | 17.7 | 0.00 | 0.00 | 0.00 | 59 | 1016.5 |
| 20260506105423 | 24 | 135 | 11.3 | 17.7 | 0.00 | 0.00 | 0.00 | 59 | 1016.4 |
| 20260506103921 | 24 | 158 | 8.0 | 17.7 | 0.00 | 0.00 | 0.00 | 59 | 1016.4 |
| 20260506102419 | 23 | 90 | 6.4 | 17.7 | 0.00 | 0.00 | 0.00 | 59 | 1016.4 |
| 20260506100917 | 22 | 135 | 9.7 | 19.3 | 0.00 | 0.00 | 0.00 | 63 | 1016.3 |
| 20260506095415 | 21 | 113 | 17.7 | 22.5 | 0.00 | 0.00 | 0.00 | 64 | 1016.2 |
| 20260506093913 | 21 | 180 | 17.7 | 22.5 | 0.00 | 0.00 | 0.00 | 64 | 1016.2 |
| 20260506092410 | 21 | 135 | 14.5 | 19.3 | 0.00 | 0.00 | 0.00 | 63 | 1016.4 |
| 20260506090908 | 21 | 225 | 12.9 | 20.9 | 0.00 | 0.00 | 0.00 | 62 | 1016.1 |
| 20260506085406 | 20 | 135 | 14.5 | 20.9 | 0.00 | 0.00 | 0.00 | 61 | 1016.1 |
| 20260506083904 | 20 | 135 | 12.9 | 17.7 | 0.00 | 0.00 | 0.00 | 61 | 1016.0 |
| 20260506082401 | 20 | 180 | 12.9 | 22.5 | 0.00 | 0.00 | 0.00 | 61 | 1015.9 |
| 20260506080859 | 20 | 180 | 12.9 | 22.5 | 0.00 | 0.00 | 0.00 | 55 | 1015.8 |
| 20260506072352 | 19 | 135 | 12.9 | 19.3 | 0.00 | 0.00 | 0.00 | 56 | 1015.5 |
| 20260506070850 | 18 | 135 | 9.7 | 12.9 | 0.00 | 0.00 | 0.00 | 58 | 1015.2 |
| 20260506062345 | 17 | 315 | 4.8 | 8.0 | 0.00 | 0.00 | 0.00 | 46 | 1015.2 |
| 20260506060842 | 17 | 90 | 3.2 | 8.0 | 0.00 | 0.00 | 0.00 | 52 | 1015.2 |
| 20260506050834 | 15 | 225 | 0.0 | 3.2 | 0.00 | 0.00 | 0.00 | 61 | 1014.8 |
| 20260506043829 | 13 | 135 | 1.6 | 4.8 | 0.00 | 0.00 | 0.00 | 60 | 1014.6 |
| 20260506042327 | 13 | 315 | 3.2 | 6.4 | 0.00 | 0.00 | 0.00 | 58 | 1014.6 |
| 20260506040824 | 13 | 225 | 0.0 | 4.8 | 0.00 | 0.00 | 0.00 | 59 | 1014.6 |
| 20260506035323 | 13 | 0 | 1.6 | 9.7 | 0.00 | 0.00 | 0.00 | 58 | 1014.5 |
| 20260506033822 | 13 | 0 | 3.2 | 3.2 | 0.00 | 0.00 | 0.00 | 58 | 1014.3 |
| 20260506032319 | 13 | 315 | 3.2 | 6.4 | 0.00 | 0.00 | 0.00 | 57 | 1014.3 |
| 20260506030817 | 13 | 315 | 3.2 | 4.8 | 0.00 | 0.00 | 0.00 | 56 | 1014.1 |
| 20260506025314 | 13 | 0 | 3.2 | 4.8 | 0.00 | 0.00 | 0.00 | 56 | 1014.2 |
| 20260506023812 | 13 | 315 | 1.6 | 8.0 | 0.00 | 0.00 | 0.00 | 57 | 1014.1 |
| 20260506022310 | 13 | 315 | 3.2 | 8.0 | 0.00 | 0.00 | 0.00 | 56 | 1014.3 |
| 20260506020808 | 13 | 0 | 6.4 | 8.0 | 0.00 | 0.00 | 0.00 | 58 | 1014.3 |
| 20260506015306 | 14 | 315 | 1.6 | 8.0 | 0.00 | 0.00 | 0.00 | 57 | 1014.3 |
| 20260506013804 | 14 | 0 | 3.2 | 6.4 | 0.00 | 0.00 | 0.00 | 59 | 1014.4 |
| 20260506012307 | 14 | 315 | 6.4 | 6.4 | 0.00 | 0.00 | 0.00 | 57 | 1014.4 |
| 20260506010759 | 14 | 45 | 1.6 | 4.8 | 0.00 | 0.00 | 0.00 | 56 | 1014.4 |
| 20260506005258 | 15 | 270 | 1.6 | 3.2 | 0.00 | 0.00 | 0.00 | 56 | 1014.2 |
| 20260506003754 | 15 | 180 | 0.0 | 6.4 | 0.00 | 0.00 | 0.00 | 55 | 1014.2 |
| 20260506002253 | 15 | 315 | 3.2 | 11.3 | 0.00 | 0.00 | 0.00 | 53 | 1014.2 |
| 20260506000751 | 15 | 225 | 4.8 | 9.7 | 0.00 | 0.00 | 0.00 | 52 | 1014.3 |
| 20260505235249 | 15 | 293 | 6.4 | 14.5 | 0.00 | 0.00 | 0.00 | 53 | 1014.2 |
| 20260505233747 | 15 | 0 | 8.0 | 9.7 | 0.00 | 0.00 | 0.00 | 54 | 1014.4 |